Hanford, CA

1:51 AM PDT on April 23, 2017 (GMT -0700)
Hanford Municipal

Weather History for KHJO - April, 2014

Change the Weather History Date:

Monday, April 21, 2014

  Actual Average Record
Temperature  
Mean Temperature 68 °F 62 °F  
Max Temperature 85 °F 77 °F 97 °F (2009)
Min Temperature 50 °F 48 °F 38 °F (2004)
Degree Days  
Heating Degree Days 0    
Month to date heating degree days 61  
Since 1 July heating degree days 2013  
Cooling Degree Days 3    
Month to date cooling degree days 63  
Year to date cooling degree days 63  
Growing Degree Days 18 (Base 50)    
Moisture  
Dew Point 44 °F    
Average Humidity 55    
Maximum Humidity 89    
Minimum Humidity 20    
Precipitation  
Precipitation 0.00 in 0.04 in 0.48 in (2003)
Month to date precipitation T 0.56  
Year to date precipitation 2.23 5.96  
Since 1 July precipitation 2.62  
Snow  
Snow 0.00 in - - ()
Month to date snowfall 0.0  
Since 1 July snowfall 0.0  
Snow Depth 0.00 in    
Sea Level Pressure  
Sea Level Pressure 29.99 in    
Wind  
Wind Speed 5 mph (NNW)    
Max Wind Speed 22 mph    
Max Gust Speed 27 mph    
Visibility 9 miles    
Events      
T = Trace of Precipitation, MM = Missing Value Source: NWS Daily Summary

Daily Weather History Graph

Daily Weather History Graph

Search for Another Location

Airport or City:

Trip Planner

Search our weather history database for the weather conditions in past years. The results will help you decide how hot, cold, wet, or windy it might be!

Date:

Astronomy

Apr. 21, 2014 Rise Set
Actual Time 6:17 AM PDT 7:37 PM PDT
Civil Twilight 5:50 AM PDT 8:04 PM PDT
Nautical Twilight 5:18 AM PDT 8:37 PM PDT
Astronomical Twilight 4:44 AM PDT 9:10 PM PDT
Moon 1:09 AM PDT (4/21) 11:51 AM PDT (4/21)
Length of Visible Light 14h 14m
Length of Day
13h 20m
Waning Gibbous, 56% of the Moon is Illuminated
Apr 21
Waning Gibbous
Apr 22
Last Quarter
Apr 28
New
May 6
First Quarter
May 14
Full

Hourly Weather History & Observations

Time (PDT) Temp. Dew Point Humidity Pressure Visibility Wind Dir Wind Speed Gust Speed Precip Events Conditions
12:53 AM 57.0 °F 44.1 °F 62% 30.06 in 10.0 mi Calm Calm - N/A   Clear
1:53 AM 55.9 °F 48.0 °F 75% 30.05 in 8.0 mi ENE 3.5 mph - N/A   Clear
2:53 AM 52.0 °F 44.1 °F 74% 30.04 in 9.0 mi Calm Calm - N/A   Clear
3:53 AM 53.1 °F 45.0 °F 74% 30.04 in 9.0 mi West 3.5 mph - N/A   Clear
4:53 AM 51.1 °F 46.0 °F 83% 30.04 in 8.0 mi Calm Calm - N/A   Clear
5:53 AM 51.1 °F 48.0 °F 89% 30.04 in 7.0 mi Calm Calm - N/A   Clear
6:53 AM 51.1 °F 46.0 °F 83% 30.04 in 5.0 mi Calm Calm - N/A   Haze
7:53 AM 57.0 °F 48.0 °F 72% 30.05 in 6.0 mi Calm Calm - N/A   Haze
8:53 AM 64.0 °F 46.9 °F 54% 30.05 in 8.0 mi Calm Calm - N/A   Clear
9:53 AM 70.0 °F 46.9 °F 44% 30.04 in 9.0 mi SE 4.6 mph - N/A   Clear
10:53 AM 75.9 °F 46.0 °F 35% 30.05 in 8.0 mi SW 4.6 mph - N/A   Clear
11:53 AM 79.0 °F 45.0 °F 30% 30.04 in 10.0 mi NW 3.5 mph - N/A   Clear
12:53 PM 81.0 °F 42.1 °F 25% 30.02 in 10.0 mi North 3.5 mph - N/A   Clear
1:53 PM 84.0 °F 42.1 °F 23% 29.99 in 10.0 mi ENE 8.1 mph - N/A   Clear
2:53 PM 84.0 °F 43.0 °F 24% 29.97 in 10.0 mi NNW 3.5 mph - N/A   Clear
3:53 PM 82.9 °F 37.0 °F 19% 29.95 in 10.0 mi Variable 3.5 mph - N/A   Clear
4:53 PM 82.0 °F 37.9 °F 21% 29.93 in 10.0 mi North 5.8 mph - N/A   Clear
5:53 PM 81.0 °F 41.0 °F 24% 29.91 in 10.0 mi North 5.8 mph - N/A   Clear
6:53 PM 79.0 °F 43.0 °F 28% 29.88 in 10.0 mi North 4.6 mph - N/A   Clear
7:53 PM 75.9 °F 43.0 °F 31% 29.88 in 10.0 mi West 3.5 mph - N/A   Clear
8:53 PM 73.9 °F 44.1 °F 34% 29.88 in 10.0 mi WNW 5.8 mph - N/A   Clear
9:53 PM 70.0 °F 45.0 °F 41% 29.89 in 10.0 mi WNW 3.5 mph - N/A   Clear
10:53 PM 69.1 °F 39.9 °F 35% 29.91 in 8.0 mi NW 20.7 mph 27.6 mph N/A   Clear
11:53 PM 66.9 °F 37.0 °F 33% 29.91 in 10.0 mi NNW 11.5 mph - N/A   Clear